Knox, IN

5:17 AM CDT on September 27, 2016 (GMT -0500)
Starke County

Weather History for KOXI - November, 2012

Change the Weather History Date:

Saturday, November 24, 2012

  Actual Average (KVPZ) Record (KVPZ)
Temperature  
Mean Temperature 25 °F 37 °F  
Max Temperature 30 °F 44 °F 62 °F (2001)
Min Temperature 20 °F 30 °F 13 °F (2013)
Degree Days  
Heating Degree Days 40 28  
Month to date heating degree days 547  
Since 1 July heating degree days 1077  
Cooling Degree Days 0 0  
Month to date cooling degree days 0  
Year to date cooling degree days 713  
Moisture  
Dew Point 19 °F    
Average Humidity 70    
Maximum Humidity 86    
Minimum Humidity 60    
Precipitation  
Precipitation 0.00 in 0.10 in 0.52 in (2010)
Month to date precipitation 2.72  
Year to date precipitation 34.72  
Sea Level Pressure  
Sea Level Pressure 30.16 in    
Wind  
Wind Speed 10 mph (WSW)    
Max Wind Speed 15 mph    
Max Gust Speed 20 mph    
Visibility 10 miles    
Events      
T = Trace of Precipitation, MM = Missing Value Source: NWS Daily Summary

Daily Weather History Graph

Daily Weather History Graph

Search for Another Location

Airport or City:

Trip Planner

Search our weather history database for the weather conditions in past years. The results will help you decide how hot, cold, wet, or windy it might be!

Date:

Astronomy

Nov. 24, 2012 Rise Set
Actual Time 6:46 AM CST 4:20 PM CST
Civil Twilight 6:15 AM CST 4:51 PM CST
Nautical Twilight 5:41 AM CST 5:25 PM CST
Astronomical Twilight 5:08 AM CST 5:58 PM CST
Moon 2:06 PM CST (11/24) 3:00 AM CST (11/24)
Length of Visible Light 10h 35m
Length of Day
9h 34m
Waxing Gibbous, 87% of the Moon is Illuminated
Nov 24
Waxing Gibbous
Nov 28
Full
Dec 6
Last Quarter
Dec 13
New
Dec 19
First Quarter

Hourly Weather History & Observations

Time (CST) Temp. Windchill Dew Point Humidity Pressure Visibility Wind Dir Wind Speed Gust Speed Precip Events Conditions
12:15 AM 29.1 °F 20.6 °F 19.2 °F 67% 30.15 in 10.0 mi West 9.2 mph - N/A   Overcast
12:35 AM 29.1 °F 20.0 °F 19.4 °F 67% 30.16 in 10.0 mi West 10.4 mph - N/A   Overcast
12:55 AM 29.1 °F 19.4 °F 19.4 °F 67% 30.16 in 10.0 mi West 11.5 mph - N/A   Overcast
1:15 AM 29.1 °F 19.4 °F 19.4 °F 67% 30.16 in 10.0 mi West 11.5 mph - N/A   Overcast
1:35 AM 29.1 °F 19.4 °F 19.2 °F 67% 30.16 in 10.0 mi West 11.5 mph - N/A   Overcast
2:15 AM 28.9 °F 18.6 °F 19.2 °F 67% 30.17 in 10.0 mi West 12.7 mph - N/A   Overcast
2:35 AM 28.9 °F 18.2 °F 19.2 °F 67% 30.17 in 10.0 mi West 13.8 mph - N/A   Overcast
2:55 AM 28.9 °F 19.8 °F 19.6 °F 68% 30.17 in 10.0 mi West 10.4 mph - N/A   Overcast
3:15 AM 28.8 °F 19.5 °F 19.4 °F 68% 30.17 in 10.0 mi West 10.4 mph - N/A   Overcast
3:35 AM 28.4 °F 17.0 °F 18.9 °F 67% 30.17 in 10.0 mi West 15.0 mph - N/A   Overcast
3:55 AM 28.4 °F 18.0 °F 18.7 °F 67% 30.18 in 10.0 mi West 12.7 mph - N/A   Overcast
4:15 AM 28.2 °F 19.5 °F 18.5 °F 67% 30.18 in 10.0 mi West 9.2 mph - N/A   Overcast
4:35 AM 28.2 °F 17.2 °F 18.5 °F 67% 30.18 in 10.0 mi WNW 13.8 mph - N/A   Overcast
4:55 AM 27.9 °F 17.8 °F 18.3 °F 67% 30.18 in 10.0 mi West 11.5 mph 18.4 mph N/A   Overcast
5:15 AM 27.5 °F 17.4 °F 18.3 °F 68% 30.18 in 10.0 mi West 11.5 mph - N/A   Overcast
5:35 AM 27.5 °F 18.0 °F 18.1 °F 68% 30.19 in 10.0 mi West 10.4 mph - N/A   Overcast
5:55 AM 27.5 °F 18.0 °F 17.8 °F 67% 30.19 in 10.0 mi West 10.4 mph 17.3 mph N/A   Overcast
6:15 AM 27.5 °F 18.0 °F 18.0 °F 67% 30.19 in 10.0 mi West 10.4 mph - N/A   Overcast
6:35 AM 27.5 °F 17.4 °F 18.1 °F 68% 30.20 in 10.0 mi West 11.5 mph - N/A   Overcast
6:55 AM 27.5 °F 18.0 °F 18.1 °F 68% 30.19 in 10.0 mi West 10.4 mph - N/A   Overcast
7:15 AM 27.5 °F 16.8 °F 18.1 °F 68% 30.20 in 10.0 mi West 12.7 mph 17.3 mph N/A   Overcast
7:35 AM 27.3 °F 17.7 °F 17.8 °F 67% 30.20 in 10.0 mi West 10.4 mph - N/A   Overcast
7:55 AM 27.1 °F 16.9 °F 17.6 °F 67% 30.20 in 10.0 mi West 11.5 mph 18.4 mph N/A   Overcast
8:15 AM 27.1 °F 15.9 °F 17.8 °F 68% 30.21 in 10.0 mi West 13.8 mph - N/A   Overcast
8:35 AM 27.3 °F 16.1 °F 17.8 °F 67% 30.20 in 10.0 mi West 13.8 mph 18.4 mph N/A   Overcast
8:55 AM 27.3 °F 16.6 °F 18.1 °F 68% 30.21 in 10.0 mi West 12.7 mph - N/A   Overcast
9:15 AM 27.5 °F 17.4 °F 18.1 °F 68% 30.22 in 10.0 mi West 11.5 mph - N/A   Overcast
9:35 AM 27.5 °F 16.8 °F 18.3 °F 68% 30.22 in 10.0 mi West 12.7 mph - N/A   Overcast
9:55 AM 27.5 °F 17.4 °F 18.5 °F 69% 30.22 in 10.0 mi West 11.5 mph 17.3 mph N/A   Overcast
10:15 AM 27.9 °F 17.8 °F 18.7 °F 68% 30.23 in 10.0 mi West 11.5 mph - N/A   Overcast
10:35 AM 28.0 °F 16.5 °F 18.7 °F 68% 30.22 in 10.0 mi West 15.0 mph 19.6 mph N/A   Overcast
10:55 AM 28.2 °F 16.8 °F 18.5 °F 67% 30.22 in 10.0 mi West 15.0 mph - N/A   Overcast
11:15 AM 28.2 °F 18.9 °F 18.5 °F 67% 30.21 in 10.0 mi West 10.4 mph - N/A   Overcast
11:35 AM 28.4 °F 17.5 °F 18.5 °F 66% 30.20 in 10.0 mi West 13.8 mph - N/A   Overcast
11:55 AM 28.4 °F 18.5 °F 18.5 °F 66% 30.20 in 10.0 mi West 11.5 mph - N/A   Overcast
12:15 PM 28.4 °F 17.5 °F 18.7 °F 67% 30.20 in 10.0 mi West 13.8 mph - N/A   Overcast
12:35 PM 28.8 °F 19.0 °F 18.5 °F 66% 30.20 in 10.0 mi West 11.5 mph - N/A   Overcast
12:55 PM 29.1 °F 20.0 °F 18.7 °F 65% 30.20 in 10.0 mi West 10.4 mph - N/A   Overcast
1:15 PM 29.3 °F 19.6 °F 18.9 °F 65% 30.19 in 10.0 mi West 11.5 mph - N/A   Overcast
1:35 PM 29.7 °F 20.7 °F 19.0 °F 65% 30.18 in 10.0 mi West 10.4 mph - N/A   Overcast
1:55 PM 29.8 °F 21.5 °F 18.9 °F 64% 30.18 in 10.0 mi West 9.2 mph - N/A   Overcast
2:15 PM 30.0 °F 21.7 °F 19.2 °F 64% 30.17 in 10.0 mi West 9.2 mph - N/A   Overcast
2:35 PM 30.0 °F 21.7 °F 18.9 °F 63% 30.16 in 10.0 mi West 9.2 mph - N/A   Overcast
2:55 PM 30.2 °F 24.3 °F 18.7 °F 62% 30.16 in 10.0 mi WSW 5.8 mph - N/A   Overcast
3:15 PM 30.2 °F 22.6 °F 18.9 °F 63% 30.16 in 10.0 mi SW 8.1 mph - N/A   Overcast
3:35 PM 30.2 °F 22.6 °F 18.1 °F 61% 30.17 in 10.0 mi West 8.1 mph - N/A   Mostly Cloudy
3:55 PM 30.0 °F 24.1 °F 17.6 °F 60% 30.15 in 10.0 mi SW 5.8 mph - N/A   Mostly Cloudy
4:15 PM 29.5 °F 23.4 °F 18.0 °F 62% 30.15 in 10.0 mi SSW 5.8 mph - N/A   Mostly Cloudy
4:35 PM 27.9 °F 22.6 °F 18.3 °F 67% 30.14 in 10.0 mi SSW 4.6 mph - N/A   Scattered Clouds
5:15 PM 24.6 °F 17.7 °F 18.0 °F 76% 30.14 in 10.0 mi SSW 5.8 mph - N/A   Clear
5:35 PM 23.9 °F 16.8 °F 17.6 °F 77% 30.14 in 10.0 mi SSW 5.8 mph - N/A   Clear
5:55 PM 23.0 °F 15.8 °F 17.2 °F 79% 30.15 in 10.0 mi SSW 5.8 mph - N/A   Clear
6:15 PM 22.5 °F 16.3 °F 17.2 °F 80% 30.14 in 10.0 mi South 4.6 mph - N/A   Clear
6:35 PM 21.6 °F 13.0 °F 17.1 °F 83% 30.13 in 10.0 mi SSE 6.9 mph - N/A   Clear
6:55 PM 21.0 °F 13.4 °F 16.9 °F 84% 30.12 in 10.0 mi South 5.8 mph - N/A   Clear
7:15 PM 20.8 °F 12.1 °F 17.1 °F 85% 30.10 in 10.0 mi SSE 6.9 mph - N/A   Clear
7:35 PM 21.6 °F 14.0 °F 18.0 °F 86% 30.10 in 10.0 mi South 5.8 mph - N/A   Clear
7:55 PM 23.7 °F 16.6 °F 19.4 °F 84% 30.10 in 10.0 mi South 5.8 mph - N/A   Clear
8:15 PM 25.0 °F 16.3 °F 19.9 °F 81% 30.08 in 10.0 mi South 8.1 mph - N/A   Clear
8:55 PM 26.2 °F 18.6 °F 20.5 °F 79% 30.07 in 10.0 mi South 6.9 mph - N/A   Clear
9:15 PM 26.6 °F 18.2 °F 21.0 °F 79% 30.07 in 10.0 mi South 8.1 mph - N/A   Mostly Cloudy
9:35 PM 26.8 °F 19.3 °F 21.2 °F 79% 30.06 in 10.0 mi South 6.9 mph - N/A   Overcast
9:55 PM 27.1 °F 18.2 °F 21.4 °F 79% 30.06 in 10.0 mi South 9.2 mph - N/A   Overcast
10:15 PM 27.3 °F 17.7 °F 21.6 °F 79% 30.05 in 10.0 mi South 10.4 mph - N/A   Overcast
10:35 PM 27.1 °F 18.2 °F 21.4 °F 79% 30.04 in 10.0 mi SSW 9.2 mph - N/A   Scattered Clouds
10:55 PM 27.3 °F 19.9 °F 21.4 °F 78% 30.04 in 10.0 mi South 6.9 mph - N/A   Scattered Clouds
11:15 PM 27.5 °F 19.3 °F 21.6 °F 78% 30.03 in 10.0 mi SSW 8.1 mph - N/A   Mostly Cloudy
11:35 PM 27.5 °F 18.6 °F 21.7 °F 79% 30.04 in 10.0 mi SSW 9.2 mph - N/A   Mostly Cloudy